[[{"header":{"parameterUnit":"m.s-1","parameterCategory":1,"la1":30.2991,"la2":30.254,"lo1":-89.0895,"lo2":-89.0444,"dy":0.0017,"dx":0.0017,"nx":28,"ny":28,"refTime":"2024-02-13T09:00:00:Z","depth":0,"parameterNumber":2,"parameterNumberName":"U-component_of_WINDS"},"data":[0,0,0,0,0,0,0,0,0,0,0,0,0,0,0,0,0,0,0,0,0,0,0,0,0,0,0,0,0,0,0,0,0,0,0,0,0,0,0,0,0,0,0,0,0,0,0,0,0,0,0,0,0,0,0,0,0,0,-2.0149,-2.0149,0,-2.0153,-2.0153,-2.0153,-2.0093,-2.0091,-2.009,-2.0088,-2.0093,-2.0095,-2.0096,0,0,0,0,0,0,0,0,0,0,0,0,0,-2.0092,-2.0094,-2.0149,-2.0149,-2.0149,-2.0153,-2.0153,-2.0153,-2.0093,-2.0091,-2.0089,-2.0087,-2.0093,-2.0095,-2.0097,0,0,0,0,0,0,0,0,0,0,0,0,0,-2.0109,-2.0094,-2.0149,-2.012,-2.0117,-2.0153,-2.0153,-2.0153,-2.0094,-2.0091,-2.0089,-2.0086,-2.0092,-2.0094,-2.0097,-2.0161,0,0,-2.0104,-2.0105,0,0,0,0,0,0,0,0,-2.0108,-2.0111,-2.0124,-2.0122,-2.0119,-2.012,-2.0134,-2.0156,-2.0094,-2.0103,-2.0088,-2.0085,-2.0104,-2.0105,-2.0111,-2.0161,-2.0161,-2.0105,-2.0106,-2.0107,-2.0108,0,0,0,0,0,0,0,-2.0107,-2.011,-2.0151,-2.0125,-2.0121,-2.0107,-2.0107,-2.0138,-2.0117,-2.0102,-2.0097,-2.0099,-2.0102,-2.0109,-2.0111,-2.0161,-2.0104,-2.0107,-2.0108,-2.0109,-2.0263,-2.0266,0,0,0,0,0,0,-2.0109,-2.011,-2.0151,-2.0151,-2.0107,-2.011,-2.011,-2.0122,-2.0117,-2.0113,-2.0101,-2.0096,-2.0106,-2.0108,-2.0111,-2.0185,-2.0107,-2.0109,-2.0111,-2.0261,-2.0264,-2.0266,0,0,0,0,0,0,-2.0109,-2.0114,-2.015,-2.0129,-2.0133,-2.0114,-2.0128,-2.0124,-2.013,-2.0116,-2.0112,-2.0112,-2.0104,-2.0108,-2.0149,-2.0184,-2.0111,-2.0113,-2.0257,-2.0261,-2.0265,-2.0334,0,0,0,0,0,0,-2.0107,-2.0114,-2.0137,-2.013,-2.0134,-2.0188,-2.013,-2.0125,-2.0135,-2.0128,-2.0125,-2.0122,-2.0103,-2.0145,-2.0151,-2.0186,-2.0115,-2.0254,-2.0259,-2.0264,-2.0328,-2.0339,-2.0349,0,0,0,0,0,-2.0105,-2.0157,-2.0139,-2.0144,-2.0163,-2.019,-2.0192,-2.0168,-2.0138,-2.0161,-2.0152,-2.0122,-2.018,-2.015,-2.0156,-2.0193,-2.0252,-2.0258,-2.0263,-2.0323,-2.0337,-2.0349,0,0,0,0,0,0,-2.0169,-2.0155,-2.0135,-2.0186,-2.019,-2.018,-2.0209,-2.0184,-2.0197,-2.019,-2.0161,-2.0161,-2.0206,-2.0204,-2.0171,-2.0254,-2.021,-2.0218,-2.0254,-2.0267,-2.0277,-2.0276,-2.0117,0,0,0,0,0,-2.0189,-2.0212,-2.0198,-2.0245,-2.0247,-2.0228,-2.0239,-2.022,-2.0223,-2.0224,-2.0218,-2.0222,-2.0241,-2.0254,-2.027,-2.0328,-2.0326,-2.0356,-2.0367,-2.0375,-2.0382,-2.0411,-2.0424,-2.0286,-2.0286,-2.0286,0,0,-2.0231,-2.0226,-2.0242,-2.0257,-2.0258,-2.0282,-2.023,-2.0257,-2.0275,-2.0228,-2.0266,-2.0262,-2.0265,-2.0314,-2.0336,-2.0313,-2.042,-2.0383,-2.039,-2.0391,-2.0419,-2.0432,-2.0443,-2.029,-2.0289,-2.0288,0,0,-2.0319,-2.0318,-2.0355,-2.0357,-2.0358,-2.0345,-2.0354,-2.0348,-2.0343,-2.0381,-2.0347,-2.0368,-2.0401,-2.0404,-2.041,-2.05,-2.0472,-2.0506,-2.0561,-2.059,-2.0601,-2.061,-2.0641,-2.0653,-2.0513,-2.0513,-2.0513,0,-2.037,-2.0404,-2.0378,-2.0408,-2.0416,-2.0375,-2.0413,-2.0416,-2.0423,-2.0429,-2.0404,-2.0445,-2.0444,-2.0493,-2.0515,-2.0522,-2.0531,-2.0506,-2.0601,-2.0611,-2.0619,-2.0648,-2.066,-2.0517,-2.0517,-2.0516,-2.0516,0,-2.0467,-2.0492,-2.0522,-2.0529,-2.0541,-2.0575,-2.0554,-2.0569,-2.055,-2.054,-2.0578,-2.0576,-2.0591,-2.0602,-2.0584,-2.0649,-2.0635,-2.0606,-2.0561,-2.0637,-2.0664,-2.0675,-2.0523,-2.0521,-2.052,-2.0519,0,0,-2.0595,-2.0587,-2.0598,-2.0601,-2.0599,-2.0618,-2.0651,-2.0665,-2.0678,-2.0685,-2.0711,-2.074,-2.0714,-2.0721,-2.0703,-2.0729,-2.0799,-2.0697,-2.0696,-2.0715,-2.087,-2.089,-2.0904,-2.0781,-2.0783,-2.0785,-2.0869,0,-2.0679,-2.0733,-2.071,-2.0767,-2.0788,-2.075,-2.0778,-2.0781,-2.0773,-2.079,-2.0781,-2.0802,-2.0766,-2.077,-2.0794,-2.0785,-2.0829,-2.0779,-2.0805,-2.0806,-2.0804,-2.0918,-2.094,-2.1019,-2.088,-2.0881,-2.0883,0,-2.0784,-2.0794,-2.0853,-2.0847,-2.0855,-2.0881,-2.0892,-2.091,-2.0912,-2.0904,-2.0912,-2.0889,-2.092,-2.0877,-2.092,-2.0887,-2.0896,-2.0894,-2.0896,-2.0897,-2.0848,-2.0921,-2.1044,-2.1056,-2.0899,-2.0898,-2.0897,0,-2.087,-2.0899,-2.0937,-2.094,-2.0935,-2.0954,-2.0953,-2.0953,-2.0963,-2.0973,-2.0979,-2.0994,-2.1001,-2.1013,-2.0994,-2.0964,-2.104,-2.0995,-2.1034,-2.1035,-2.1051,-2.105,-2.1177,-2.1059,-2.1059,-2.1059,-2.1059,0,-2.0966,-2.1003,-2.0975,-2.0999,-2.1039,-2.1013,-2.1054,-2.1049,-2.1049,-2.1071,-2.104,-2.1061,-2.1035,-2.1055,-2.104,-2.1078,-2.1082,-2.1077,-2.1072,-2.1079,-2.1079,-2.1084,-2.1077,-2.1062,-2.1061,-2.1061,-2.106,0,-2.1068,-2.1051,-2.109,-2.1082,-2.1081,-2.1111,-2.1104,-2.1126,-2.1115,-2.1144,-2.1149,-2.1133,-2.1154,-2.1136,-2.1157,-2.1147,-2.1197,-2.1185,-2.1196,-2.1192,-2.1232,-2.1228,-2.1365,-2.1382,-2.1255,-2.1256,-2.1257,0,-2.113,-2.1158,-2.1152,-2.1164,-2.1165,-2.1185,-2.1195,-2.1171,-2.1183,-2.1188,-2.1209,-2.1227,-2.124,-2.1276,-2.1266,-2.1282,-2.127,-2.1317,-2.1272,-2.1277,-2.1269,-2.1267,-2.127,-2.1325,-2.1327,-2.1328,-2.1329,0,-2.1242,-2.1232,-2.1247,-2.1259,-2.1272,-2.1281,-2.1287,-2.1299,-2.1275,-2.129,-2.131,-2.1321,-2.1341,-2.136,-2.1372,-2.1372,-2.1347,-2.1343,-2.1353,-2.136,-2.1364,-2.1361,-2.122,-2.134,-2.1339,-2.1338,-2.1338,-2.1337,-2.1325,-2.1347,-2.1347,-2.1365,-2.1367,-2.1373,-2.1393,-2.1385,-2.1402,-2.1416,-2.1401,-2.1427,-2.1428,-2.1442,-2.1445,-2.1464,-2.1445,-2.1459,-2.1463,-2.1466,-2.1472,-2.1362,-2.1467,-2.1466,-2.1466,-2.1466,-2.1466,0,-2.1434,-2.1432,-2.1448,-2.1458,-2.1472,-2.1447,-2.1453,-2.1466,-2.1489,-2.1492,-2.1506,-2.153,-2.1547,-2.1539,-2.1555,-2.1572,-2.1561,-2.1577,-2.1575,-2.1575,-2.1489,-2.1478,-2.1586,-2.1586,-2.1586,-2.1586,-2.1586,-2.1586,-2.1492,-2.1528,-2.1518,-2.1556,-2.1553,-2.1577,-2.1582,-2.1588,-2.1591,-2.1619,-2.1633,-2.1628,-2.1627,-2.1642,-2.1657,-2.1654,-2.1661,-2.1681,-2.1675,-2.1593,-2.1581,-2.157,-2.156,-2.1683,-2.1683,-2.1759,-2.176,-2.1761]},{"header":{"parameterUnit":"m.s-1","parameterCategory":1,"la1":30.2991,"la2":30.254,"lo1":-89.0895,"lo2":-89.0444,"dy":0.0017,"dx":0.0017,"nx":28,"ny":28,"refTime":"2024-02-13T09:00:00:Z","depth":0,"parameterNumber":3,"parameterNumberName":"V-component_of_WINDS"},"data":[0,0,0,0,0,0,0,0,0,0,0,0,0,0,0,0,0,0,0,0,0,0,0,0,0,0,0,0,0,0,0,0,0,0,0,0,0,0,0,0,0,0,0,0,0,0,0,0,0,0,0,0,0,0,0,0,0,0,1.7789,1.779,0,1.7833,1.7834,1.7834,1.7845,1.7844,1.7844,1.7844,1.7886,1.7888,1.7889,0,0,0,0,0,0,0,0,0,0,0,0,0,1.7709,1.7711,1.7789,1.779,1.779,1.7833,1.7834,1.7835,1.7845,1.7844,1.7844,1.7844,1.7886,1.7887,1.7889,0,0,0,0,0,0,0,0,0,0,0,0,0,1.7748,1.7711,1.7789,1.78,1.7802,1.7833,1.7834,1.7835,1.7845,1.7844,1.7844,1.7843,1.7885,1.7887,1.7889,1.7911,0,0,1.7896,1.7897,0,0,0,0,0,0,0,0,1.7746,1.7751,1.7798,1.78,1.7801,1.7833,1.7821,1.786,1.7845,1.7828,1.7844,1.7843,1.7869,1.7872,1.7881,1.7913,1.7915,1.7896,1.7897,1.7898,1.7899,0,0,0,0,0,0,0,1.7743,1.7749,1.7807,1.7799,1.7801,1.7802,1.7807,1.7829,1.785,1.783,1.7831,1.7836,1.7869,1.7879,1.7882,1.7916,1.7896,1.7898,1.7899,1.79,1.7967,1.7967,0,0,0,0,0,0,1.7739,1.7747,1.7805,1.7808,1.7772,1.7804,1.781,1.7823,1.785,1.7854,1.7836,1.7836,1.7876,1.788,1.7884,1.7911,1.7898,1.79,1.7901,1.7966,1.7967,1.7967,0,0,0,0,0,0,1.7737,1.7744,1.7803,1.7777,1.7785,1.7806,1.7821,1.7824,1.7834,1.7855,1.7859,1.7843,1.7876,1.7881,1.7904,1.7912,1.7901,1.7903,1.7966,1.7966,1.7967,1.7965,0,0,0,0,0,0,1.7735,1.7743,1.7753,1.7778,1.7787,1.7824,1.7822,1.7826,1.7838,1.7839,1.7862,1.7865,1.7876,1.7901,1.7906,1.7915,1.7905,1.7965,1.7966,1.7967,1.7965,1.7966,1.7967,0,0,0,0,0,1.7732,1.775,1.7753,1.776,1.7799,1.7825,1.783,1.7842,1.7839,1.7848,1.7861,1.7865,1.7911,1.7904,1.791,1.7919,1.7964,1.7966,1.7967,1.7964,1.7965,1.7967,0,0,0,0,0,0,1.7725,1.7753,1.7757,1.7784,1.7802,1.7826,1.7838,1.7843,1.7861,1.7861,1.7874,1.7879,1.7902,1.7913,1.7904,1.7941,1.7937,1.794,1.7933,1.7935,1.7936,1.7932,1.7906,0,0,0,0,0,1.7726,1.7746,1.777,1.7791,1.78,1.7817,1.7829,1.7837,1.7855,1.7863,1.7878,1.7894,1.7913,1.7924,1.7942,1.7966,1.7971,1.7975,1.7976,1.7977,1.7979,1.7991,1.7993,1.7971,1.7971,1.7971,0,0,1.773,1.7748,1.7759,1.779,1.7805,1.7823,1.7824,1.7844,1.7857,1.7865,1.7889,1.79,1.7919,1.7943,1.7954,1.7953,1.7986,1.7979,1.7979,1.7981,1.7993,1.7995,1.7997,1.7972,1.7972,1.7972,0,0,1.7746,1.7762,1.7781,1.7796,1.7818,1.783,1.7834,1.7858,1.7866,1.7889,1.7896,1.7911,1.7943,1.7956,1.7967,1.7987,1.799,1.7992,1.7998,1.8009,1.8011,1.8013,1.8019,1.8021,1.7994,1.7994,1.7994,0,1.7747,1.7776,1.779,1.781,1.7822,1.7832,1.785,1.7864,1.789,1.7898,1.7897,1.7935,1.7949,1.7976,1.798,1.7989,1.7994,1.799,1.801,1.8012,1.8013,1.8019,1.8022,1.7994,1.7994,1.7994,1.7994,0,1.7776,1.7796,1.7809,1.7835,1.785,1.7869,1.7884,1.7896,1.7903,1.7914,1.7937,1.7954,1.7975,1.7982,1.7988,1.8009,1.8007,1.8008,1.8004,1.8015,1.8021,1.8024,1.7994,1.7994,1.7994,1.7994,0,0,1.7789,1.7823,1.7827,1.7839,1.7863,1.7879,1.7897,1.7919,1.7929,1.7946,1.7962,1.7988,1.7988,1.8,1.8008,1.8018,1.8032,1.8018,1.8018,1.8019,1.8054,1.8053,1.8056,1.8034,1.8035,1.8035,1.8052,0,1.7807,1.7843,1.7855,1.7884,1.7902,1.791,1.7926,1.7942,1.7953,1.7969,1.798,1.7998,1.7998,1.8005,1.8016,1.8028,1.8039,1.8027,1.8047,1.8048,1.8042,1.8059,1.8059,1.8074,1.8055,1.8055,1.8055,0,1.7834,1.7853,1.7883,1.7905,1.7913,1.7927,1.7947,1.7963,1.7981,1.7988,1.8001,1.8008,1.8027,1.8022,1.8047,1.8039,1.8048,1.8055,1.8055,1.8057,1.8052,1.8061,1.8079,1.8081,1.8059,1.8059,1.8059,0,1.7839,1.7872,1.7894,1.7904,1.793,1.794,1.7951,1.7969,1.7981,1.7998,1.8005,1.8024,1.8034,1.8048,1.8059,1.8055,1.8082,1.8079,1.8087,1.8087,1.8093,1.8092,1.8112,1.8099,1.8099,1.8099,1.8099,0,1.7858,1.7876,1.7897,1.7911,1.7931,1.7944,1.7963,1.7974,1.799,1.8005,1.8013,1.8026,1.8041,1.8056,1.8064,1.8083,1.8088,1.8093,1.8095,1.8092,1.8091,1.8098,1.8097,1.81,1.81,1.81,1.8099,0,1.7868,1.7882,1.7907,1.793,1.7936,1.795,1.7969,1.7981,1.7992,1.8011,1.8016,1.8033,1.8051,1.8063,1.8086,1.8092,1.8112,1.8114,1.8106,1.8107,1.8114,1.8113,1.8139,1.8142,1.8128,1.8128,1.8128,0,1.7879,1.7893,1.7917,1.7928,1.794,1.7957,1.7969,1.7983,1.7995,1.8016,1.8026,1.8044,1.806,1.8088,1.8102,1.8119,1.8121,1.8129,1.8124,1.812,1.812,1.8119,1.812,1.8129,1.8129,1.8129,1.813,0,1.7896,1.7903,1.792,1.794,1.7955,1.7971,1.7987,1.7995,1.8011,1.8024,1.8043,1.8055,1.8079,1.8097,1.8115,1.8125,1.813,1.8131,1.8134,1.8131,1.8125,1.8128,1.8107,1.813,1.813,1.813,1.813,1.813,1.7906,1.7919,1.7938,1.7957,1.7971,1.7985,1.7998,1.8011,1.8027,1.8048,1.8055,1.8074,1.809,1.8116,1.8126,1.814,1.814,1.8144,1.8145,1.8145,1.8145,1.8123,1.8144,1.8144,1.8144,1.8144,1.8144,0,1.7924,1.7936,1.7954,1.7976,1.7991,1.7995,1.8013,1.8024,1.8041,1.8057,1.8072,1.8093,1.8111,1.8125,1.8143,1.8151,1.8154,1.8155,1.8155,1.8157,1.8145,1.8141,1.8153,1.8153,1.8153,1.8153,1.8153,1.8153,1.7934,1.7956,1.7964,1.7992,1.8004,1.8024,1.8033,1.8046,1.8059,1.8082,1.8097,1.8107,1.8121,1.814,1.8156,1.8159,1.8165,1.8166,1.817,1.8159,1.8158,1.8157,1.8153,1.8167,1.8167,1.8181,1.8181,1.8181]}]]